Regional Weather Roundup
Issued by NWS State College, PA

Home | Current Version | Previous Version | Graphics & Text | Print | Product List | Glossary Off
Versions: 1 2 3 4 5 6 7 8 9 10 11 12 13 14 15 16 17 18 19 20 21 22 23 24 25 26 27 28 29 30 31 32 33 34 35 36 37 38 39 40 41 42 43 44 45 46 47 48 49 50

000
ASUS41 KCTP 202010
RWRCTP

REGIONAL WEATHER ROUNDUP
NATIONAL WEATHER SERVICE STATE COLLEGE PA
400 PM EDT FRI OCT 20 2017

Note: "fair" indicates few or no clouds below 12,000 feet with no
significant weather and/or obstructions to visibility.

* = STATION THAT DOES NOT REPORT PRECIPITATION /E.G. RAIN...SNOW...ETC/
    THUNDER OR FOG.

PAZ002>004-007>009-013>016-020>023-029>032-202100-
WESTERN PENNSYLVANIA

CITY           SKY/WX    TMP DP  RH WIND       PRES   REMARKS
ERIE           SUNNY     67  48  50 N3        30.23F
MEADVILLE      SUNNY     70  35  27 W6        30.25F
FRANKLIN*      SUNNY     70  31  23 CALM      30.26S
NEW CASTLE     FAIR      71  29  21 CALM      30.26
BEAVER COUNTY  SUNNY     75  39  27 SW3       30.25F
BUTLER*        SUNNY     69  35  28 VRB3      30.26S
PITTSBURGH INT MOSUNNY   72  30  21 CALM      30.25F
PITTSBURGH     SUNNY     70  31  23 NE3       30.24F
INDIANA*       SUNNY     70  32  24 CALM      30.28S
LATROBE        MOSUNNY   68  32  26 NW3       30.26F
WASHINGTON CO* SUNNY     71  33  24 CALM      30.28S
$$

PAZ004>006-010>012-017>019-024>028-033>037-041-042-045-046-049>053-202100-
CENTRAL PENNSYLVANIA

CITY           SKY/WX    TMP DP  RH WIND       PRES   REMARKS
BRADFORD       SUNNY     70  31  23 N7        30.24F
DUBOIS         SUNNY     68  34  28 CALM      30.24F
CLEARFIELD     SUNNY     72  30  21 NW3       30.23F
JOHNSTOWN      SUNNY     67  29  24 NW5       30.26S
ALTOONA        SUNNY     72  32  23 NE8       30.24F
STATE COLLEGE  SUNNY     72  34  25 NW6       30.23S
WILLIAMSPORT   SUNNY     75  29  18 N7        30.18F
SELINSGROVE    SUNNY     73  35  25 N8        30.20F
FT INDIANTOWN  SUNNY     72  32  23 NW6       30.19S
CAPITAL CITY   SUNNY     74  32  21 N7        30.19F
HARRISBURG     MOSUNNY   73  42  32 W7        30.18F
YORK           SUNNY     72  39  30 N10       30.20S
$$

PAZ038>040-043-044-047-048-054-055-060>062-067>071-202100-
EASTERN PENNSYLVANIA

CITY           SKY/WX    TMP DP  RH WIND       PRES   REMARKS
SCRANTON       SUNNY     70  31  23 N10       30.18F
MOUNT POCONO   LGT RAIN  64  33  31 NW15      30.18S
ALLENTOWN      SUNNY     74  32  21 NW6       30.16R
QUAKERTOWN*    CLEAR     72  34  25 N8        30.17S
READING        SUNNY     72  38  29 NW13      30.17S
LANCASTER      SUNNY     71  39  31 NW10      30.19S
COATESVILLE    CLEAR     70  37  30 NW10      30.20R
POTTSTOWN      SUNNY     71  37  28 NW10      30.18S
BLUE BELL      SUNNY     72  34  25 W7        30.17S
DOYLESTOWN     SUNNY     73  30  20 NW9       30.14F
WILLOW GROVE   NOT AVBL
NORTH PHILA    SUNNY     75  36  24 W13G20    30.16S
PHILADELPHIA   MOSUNNY   74  37  26 NW8       30.16S
$$



USA.gov is the U.S. government's official web portal to all federal, state and local government web resources and services.